Location: Newark
(46.7000°N, 60.6000°W)
Time: 00:03:33
(UTC+00:00)

Vanguard 1 - Pass Details

Date: 28 October 2020
Orbit: 650 x 3833 km, 34.2° (Epoch: 23 November)

Event Time Altitude Azimuth Distance (km) Brightness Sun altitude
Rises 20:49:56 0° 271° (W) 7,974 16.3 -0.5°
Reaches altitude 10° 20:55:53 10° 267° (W) 6,851 16.1 -1.4°
Maximum altitude 21:15:45 47° 204° (SSW) 3,567 13.3 -4.7°
Drops below altitude 10° 21:28:19 10° 135° (SE) 4,467 13.1 -6.8°
Sets 21:31:17 0° 129° (SE) 5,111 13.4 -7.3°
